Weather Roundup
Issued by NWS

Home | Current Version | Previous Version | Text Only | Print | Product List | Glossary On
Versions: 1 2 3 4 5 6 7 8 9 10 11 12 13 14 15 16 17 18 19 20 21 22 23 24 25 26 27 28 29 30 31 32 33 34 35 36 37 38 39 40 41 42 43 44 45 46 47 48 49 50
000
NZUS93 KARX 300310
HRRWXR

CURRENT HOURLY OBSERVATIONS ACROSS
MUCH OF THE UPPER MISSISSIPPI VALLEY
NATIONAL WEATHER SERVICE LA CROSSE WI
1000 PM CDT SUN MAY 29 2016


...SOUTHEAST MINNESOTA...


CITY           SKY/WX    TMP DP  RH WIND       PRES   REMARKS
ROCHESTER      PTCLDY    67  59  75 NW5       30.00R
ROCHESTER/MAYO MOCLDY    69  59  69 W3        29.99R
WINONA         PTCLDY    66  61  82 CALM      29.97R
AUSTIN         CLEAR     66  52  59 CALM      30.00R
ALBERT LEA     CLEAR     66  55  68 CALM      30.00R
DODGE CENTER   CLEAR     64  57  77 CALM      30.00R
PRESTON        CLEAR     67  58  73 SW3       30.01R
OWATONNA       CLEAR     64  59  82 CALM      30.00R
FARIBAULT      CLEAR     61  61 100 CALM      29.99R
$$

...ELSEWHERE IN MINNESOTA...


CITY           SKY/WX    TMP DP  RH WIND       PRES   REMARKS
MINNEAPOLIS    CLEAR     70  56  61 W6        29.96R
INTNL FALLS    MOCLDY    58  53  84 W3        29.89R
DULUTH         PTCLDY    59  51  75 W7        29.93R
RED WING       CLEAR     66  57  72 CALM      29.95R
REDWOOD FALLS  CLEAR     70  44  39 W3        29.98R
MANKATO        CLEAR     68  57  68 CALM      29.99R
WORTHINGTON    CLEAR     66  52  60 SW6       30.04R
FAIRMONT       CLEAR     68  48  49 W7        30.01R
$$

...SOUTHWEST WISCONSIN...


CITY           SKY/WX    TMP DP  RH WIND       PRES   REMARKS
LA CROSSE      CLEAR     66  58  75 CALM      29.96R
PRAIRIE DU CHI CLEAR     64  59  82 CALM      29.99R
BOSCOBEL       CLEAR     66  61  84 CALM      29.99R
LONE ROCK      PTCLDY    64  61  90 CALM      29.99R
PLATTEVILLE    CLEAR     66  60  78 SW6       30.00R
FORT MC COY    CLEAR     61  57  87 CALM      29.98R
CAMP DOUGLAS   CLEAR     62  62 100 CALM      29.96R
MAUSTON-NEW LI CLEAR     65  59  81 CALM      29.96R
VIROQUA        FAIR      64  60  84 SW6       30.00R
WIS DELLS      CLOUDY    65  58  79 SW6       29.98R
$$

...ELSEWHERE IN WISCONSIN...


CITY           SKY/WX    TMP DP  RH WIND       PRES   REMARKS
MILWAUKEE      PTCLDY    71  57  61 W6        29.97R
MADISON        TSTM      65  59  81 VRB7      29.98R
GREEN BAY      CLEAR     68  58  70 W6        29.93R
EAU CLAIRE     CLEAR     64  57  78 SW3       29.94R
BLACK RVR FLS  FAIR      58  58 100 CALM      29.96R
MEDFORD        CLEAR     61  57  88 SW3       29.95R
WAUSAU         CLEAR     65  55  70 CALM      29.93R
WIS RAPIDS     CLEAR     61  55  81 CALM      29.97R
MARSHFIELD     CLEAR     61  56  83 W6        29.95R
RICE LAKE      PTCLDY    63  58  83 CALM      29.97R
$$

...NORTHEAST IOWA...


CITY           SKY/WX    TMP DP  RH WIND       PRES   REMARKS
WATERLOO       CLOUDY    70  62  76 CALM      30.00R
DUBUQUE        MOCLDY    66  57  72 CALM      30.01R
DECORAH        PTCLDY    68  59  73 CALM      29.99R
MASON CITY     CLEAR     63  54  72 W8        30.03R
CHARLES CITY   CLEAR     68  59  73 W6        30.01R
OELWEIN        MOCLDY    70  61  73 SW7       30.02R
$$

...ELSEWHERE IN IOWA...


CITY           SKY/WX    TMP DP  RH WIND       PRES   REMARKS
DES MOINES     PTCLDY    76  56  49 S5        30.01R
IOWA CITY      CLEAR     70  58  65 CALM      30.02R
FORT DODGE     CLEAR     66  52  59 CALM      30.03R
MARSHALLTOWN   MOCLDY    71  58  63 SW7       30.00R
CEDAR RAPIDS   PTCLDY    69  60  73 SW7       30.00R
$$

...NORTHERN ILLINOIS...


CITY           SKY/WX    TMP DP  RH WIND       PRES   REMARKS
CHICAGO-OHARE  PTCLDY    70  58  65 W6        29.99R
CHICAGO-MIDWAY CLEAR     74  56  53 W6        29.99R
MOLINE         CLEAR     71  57  61 SW3       30.01R
ROCKFORD       PTCLDY    70  58  65 SW5       30.02R
PEORIA         CLEAR     71  58  63 CALM      30.03R
$$

NOTE: "FAIR" INDICATES FEW OR NO CLOUDS BELOW 12,000 FEET WITH NO
SIGNIFICANT WEATHER AND/OR OBSTRUCTIONS TO VISIBILITY. WIND
SPEEDS ARE IN MILES-PER-HOUR.




USA.gov is the U.S. government's official web portal to all federal, state and local government web resources and services.